Marrakech, Morocco

7:50 PM WET on December 06, 2016 (GMT +0000)
Menara

Weather History for GMMX - February, 2015

Change the Weather History Date:

Wednesday, February 4, 2015

  Actual Average Record
Temperature  
Mean Temperature 50 °F -  
Max Temperature 59 °F 66 °F 78 °F (2004)
Min Temperature 41 °F 44 °F 35 °F (2011)
Degree Days  
Heating Degree Days 15    
Moisture  
Dew Point 45 °F    
Average Humidity 81    
Maximum Humidity 100    
Minimum Humidity 45    
Precipitation  
Precipitation 0.00 in - - ()
Sea Level Pressure  
Sea Level Pressure 30.04 in    
Wind  
Wind Speed 4 mph ()    
Max Wind Speed 16 mph    
Max Gust Speed -    
Visibility 6.1 miles    
Events      
Averages and records for this station are not official NWS values.
T = Trace of Precipitation, MM = Missing Value Source: Averaged Metar Reports

Daily Weather History Graph

Daily Weather History Graph

Search for Another Location

Airport or City:

Trip Planner

Search our weather history database for the weather conditions in past years. The results will help you decide how hot, cold, wet, or windy it might be!

Date:

Astronomy

Feb. 04, 2015 Rise Set
Actual Time 7:23 AM WET 6:09 PM WET
Civil Twilight 6:57 AM WET 6:34 PM WET
Nautical Twilight 6:28 AM WET 7:03 PM WET
Astronomical Twilight 6:00 AM WET 7:32 PM WET
Moon 6:51 PM WET (2/4) 7:23 AM WET (2/4)
Length of Visible Light 11h 36m
Length of Day
10h 45m
Full, 100% of the Moon is Illuminated
Feb 4
Full
Feb 12
Last Quarter
Feb 18
New
Feb 25
First Quarter
Mar 5
Full

Hourly Weather History & Observations

Time (WET) Temp. Windchill Dew Point Humidity Pressure Visibility Wind Dir Wind Speed Gust Speed Precip Events Conditions
12:00 AM 42 °F - 40 °F 89% 30.05 in 4 mi Calm Calm - -  
12:30 AM 42.8 °F - 41.0 °F 93% 30.01 in 4.3 mi Calm Calm - N/A   Unknown
1:00 AM 42.8 °F 41.1 °F 41.0 °F 93% 30.01 in - South 3.5 mph - N/A   Clear
1:30 AM 42.8 °F - 41.0 °F 93% 30.01 in - Calm Calm - N/A   Clear
2:00 AM 42.8 °F - 41.0 °F 93% 30.01 in - Calm Calm - N/A   Clear
2:30 AM 41.0 °F - 41.0 °F 100% 30.01 in 6.2 mi Calm Calm - N/A   Unknown
3:00 AM 42 °F - 41 °F 97% 30.06 in 6 mi Calm Calm - -   Partly Cloudy
3:00 AM 42.8 °F - 41.0 °F 93% 30.01 in 6.2 mi Calm Calm - N/A   Scattered Clouds
3:30 AM 42.8 °F - 42.8 °F 100% 30.01 in 6.2 mi Calm Calm - N/A   Scattered Clouds
4:00 AM 44.6 °F 41.4 °F 42.8 °F 93% 30.01 in 6.2 mi South 5.8 mph - N/A   Scattered Clouds
4:30 AM 46.4 °F 43.5 °F 42.8 °F 87% 30.01 in 6.2 mi SSW 5.8 mph - N/A   Scattered Clouds
5:00 AM 48.2 °F - 42.8 °F 82% 30.01 in 6.2 mi SSW 5.8 mph - N/A   Scattered Clouds
5:30 AM 48.2 °F - 42.8 °F 82% 30.01 in 6.2 mi South 5.8 mph - N/A   Scattered Clouds
6:00 AM 47 °F - 43 °F 82% 30.05 in 6 mi Calm Calm - -   Mostly Cloudy
6:00 AM 46.4 °F - 42.8 °F 87% 30.01 in 6.2 mi Calm Calm - N/A   Mostly Cloudy
6:30 AM 46.4 °F - 42.8 °F 87% 30.04 in 6.2 mi Variable 1.2 mph - N/A   Mostly Cloudy
7:00 AM 46.4 °F - 44.6 °F 93% 30.04 in 6.2 mi Calm Calm - N/A   Mostly Cloudy
7:30 AM 46.4 °F - 44.6 °F 93% 30.04 in 6.2 mi Calm Calm - N/A   Mostly Cloudy
8:00 AM 46.4 °F - 44.6 °F 93% 30.06 in 6.2 mi Calm Calm - N/A   Mostly Cloudy
8:30 AM 46.4 °F 45.2 °F 44.6 °F 93% 30.06 in 6.2 mi SE 3.5 mph - N/A   Mostly Cloudy
9:00 AM 49 °F - 45 °F 80% 30.09 in 6 mi SSE 3.5 mph - -  
9:00 AM 48.2 °F - 44.6 °F 87% 30.06 in 6.2 mi SSE 3.5 mph - N/A   Mostly Cloudy
9:30 AM 51.8 °F - 44.6 °F 76% 30.06 in 6.2 mi South 9.2 mph - N/A   Mostly Cloudy
10:00 AM 53.6 °F - 42.8 °F 67% 30.06 in 6.2 mi South 10.4 mph - N/A   Mostly Cloudy
10:30 AM 53.6 °F - 42.8 °F 67% 30.06 in 6.2 mi South 11.5 mph - N/A   Mostly Cloudy
11:00 AM 55.4 °F - 42.8 °F 63% 30.06 in 6.2 mi South 12.7 mph - N/A   Mostly Cloudy
11:30 AM 55.4 °F - 42.8 °F 63% 30.06 in 6.2 mi SSW 10.4 mph - N/A   Mostly Cloudy
12:00 PM 57 °F - 42 °F 45% 30.06 in 6 mi SW 8.1 mph - -   Mostly Cloudy
12:00 PM 57.2 °F - 41.0 °F 55% 30.06 in 6.2 mi SW 5.8 mph - N/A   Mostly Cloudy
12:30 PM 59.0 °F - 42.8 °F 55% 30.04 in 6.2 mi SW 8.1 mph - N/A   Scattered Clouds
1:00 PM 59.0 °F - 42.8 °F 55% 30.04 in 6.2 mi WSW 9.2 mph - N/A   Scattered Clouds
1:30 PM 59.0 °F - 42.8 °F 55% 30.04 in 6.2 mi West 9.2 mph - N/A   Scattered Clouds
2:00 PM 59.0 °F - 44.6 °F 59% 30.01 in 6.2 mi WSW 11.5 mph - N/A   Scattered Clouds
2:30 PM 59.0 °F - 44.6 °F 59% 30.01 in 6.2 mi WSW 13.8 mph - N/A   Scattered Clouds
3:00 PM 59 °F - 45 °F 48% 30.00 in 6 mi West 11.5 mph - -   Mostly Cloudy
3:00 PM 59.0 °F - 44.6 °F 59% 30.01 in 6.2 mi West 11.5 mph - N/A   Scattered Clouds
3:30 PM 59.0 °F - 46.4 °F 63% 30.01 in 6.2 mi West 13.8 mph - N/A   Scattered Clouds
4:00 PM 59.0 °F - 46.4 °F 63% 30.01 in 6.2 mi West 11.5 mph - N/A   Scattered Clouds
4:30 PM 59.0 °F - 46.4 °F 63% 30.01 in 6.2 mi West 16.1 mph - N/A   Scattered Clouds
5:00 PM 57.2 °F - 48.2 °F 72% 30.01 in 6.2 mi WNW 13.8 mph - N/A   Mostly Cloudy
5:30 PM 55.4 °F - 50.0 °F 82% 30.01 in 6.2 mi WNW 10.4 mph - N/A   Mostly Cloudy
6:00 PM 55 °F - 49 °F 75% 30.03 in 6 mi WNW 10.4 mph - -   Mostly Cloudy
6:00 PM 55.4 °F - 50.0 °F 82% 30.04 in 6.2 mi WNW 10.4 mph - N/A   Mostly Cloudy
6:30 PM 53.6 °F - 50.0 °F 88% 30.04 in 6.2 mi NW 11.5 mph - N/A   Mostly Cloudy
7:00 PM 53.6 °F - 50.0 °F 88% 30.04 in 6.2 mi NW 10.4 mph - N/A   Mostly Cloudy
7:30 PM 51.8 °F - 50.0 °F 94% 30.06 in 6.2 mi NW 9.2 mph - N/A   Mostly Cloudy
8:00 PM 51.8 °F - 50.0 °F 94% 30.06 in 6.2 mi WNW 8.1 mph - N/A   Mostly Cloudy
8:30 PM 51.8 °F - 50.0 °F 94% 30.09 in 6.2 mi NW 9.2 mph - N/A   Mostly Cloudy
9:00 PM 50 °F - 49 °F 95% 30.11 in 6 mi NW 5.8 mph - -   Mostly Cloudy
9:00 PM 50.0 °F - 50.0 °F 100% 30.09 in 6.2 mi NW 5.8 mph - N/A   Mostly Cloudy
9:30 PM 50.0 °F - 48.2 °F 94% 30.09 in 6.2 mi NNW 5.8 mph - N/A   Mostly Cloudy
10:00 PM 50.0 °F - 50.0 °F 100% 30.09 in 4.3 mi North 5.8 mph - N/A   Light Drizzle
10:30 PM 50.0 °F - 48.2 °F 94% 30.09 in 6.2 mi North 5.8 mph - N/A   Light Drizzle
11:00 PM 48.2 °F - 48.2 °F 100% 30.09 in 6.2 mi NNE 3.5 mph - N/A   Light Drizzle
11:30 PM 48.2 °F - 46.4 °F 93% 30.09 in 6.2 mi NNE 3.5 mph - N/A   Mostly Cloudy